This demonstration page uses our WeatherBlox Daily Observations layout. Learn more.

Left ArrowRight Arrow

44.8408, -93.29828

Hourly Observations for September 4, 2016

Temp ( °F °C ) Dew Point ( °F °C ) Humidity (%) Winds ( mph kmh ) Pressure ( in mb ) Visibility ( mi km ) Precip ( " mm )
12:53 am 00:53 Clear 63 17.2 56 13.3 78 78 SSE 10 17 30.04 1017 10 16 0.00 0.00
1:53 am 01:53 Clear 61 16.1 55 12.8 81 81 SSE 10 17 30.04 1017 10 16 0.00 0.00
2:53 am 02:53 Clear 61 16.1 55 12.8 81 81 SSE 10 17 30.03 1017 10 16 0.00 0.00
3:53 am 03:53 Clear 62 16.7 55 12.8 78 78 SSE 10 17 30.04 1017 10 16 0.00 0.00
4:53 am 04:53 Clear 62 16.7 55 12.8 78 78 SSE 10 17 30.02 1017 10 16 0.00 0.00
5:53 am 05:53 Mostly Clear 60 15.6 55 12.8 84 84 SSE 7 11 30.03 1017 10 16 0.00 0.00
6:53 am 06:53 Mostly Cloudy 60 15.6 55 12.8 84 84 SSE 13 20 30.02 1017 10 16 0.00 0.00
7:53 am 07:53 Mostly Cloudy 62 16.7 57 13.9 84 84 SSE 12 19 30.01 1016 10 16 0.00 0.00
8:53 am 08:53 Mostly Cloudy 66 18.9 58 14.4 75 75 SSE 14 22 30.01 1016 10 16 0.00 0.00
9:53 am 09:53 Mostly Cloudy 70 21.1 59 15 68 68 S 13 20 30.01 1016 10 16 0.00 0.00
10:53 am 10:53 Mostly Cloudy 73 22.8 59 15 62 62 S 14 22 30.00 1016 10 16 0.00 0.00
11:53 am 11:53 Mostly Cloudy 76 24.4 58 14.4 54 54 S 16 26 29.98 1015 10 16 0.00 0.00
12:53 pm 12:53 Mostly Cloudy 77 25 60 15.6 56 56 SSE 17 28 29.98 1015 10 16 0.00 0.00
1:53 pm 13:53 Cloudy 78 25.6 59 15 52 52 S 17 28 29.97 1015 10 16 0.00 0.00
2:53 pm 14:53 Cloudy 78 25.6 59 15 52 52 S 18 30 29.96 1015 10 16 0.00 0.00
3:53 pm 15:53 Cloudy 77 25 60 15.6 56 56 SSE 16 26 29.95 1014 10 16 0.00 0.00
4:53 pm 16:53 Cloudy 77 25 60 15.6 56 56 S 15 24 29.94 1014 10 16 0.00 0.00
5:53 pm 17:53 Mostly Cloudy 76 24.4 59 15 56 56 SSE 15 24 29.92 1013 10 16 0.00 0.00
6:53 pm 18:53 Mostly Cloudy 75 23.9 60 15.6 60 60 SSE 15 24 29.92 1013 10 16 0.00 0.00
7:53 pm 19:53 Mostly Cloudy 74 23.3 59 15 60 60 SSE 13 20 29.90 1013 10 16 0.00 0.00
8:53 pm 20:53 Mostly Cloudy 73 22.8 59 15 62 62 SE 12 19 29.91 1013 10 16 0.00 0.00
9:53 pm 21:53 Cloudy 72 22.2 59 15 64 64 SSE 13 20 29.91 1013 10 16 0.00 0.00
10:53 pm 22:53 Cloudy 69 20.6 61 16.1 76 76 SSE 12 19 29.90 1012 10 16 0.02 0.51
11:53 pm 23:53 Cloudy 70 21.1 61 16.1 73 73 SSE 10 17 29.89 1012 10 16 0.00 0.00

Powered by AerisWeather